Time,TemperatureF,DewpointF,PressureIn,WindDirection,WindDirectionDegrees,WindSpeedMPH,WindSpeedGustMPH,Humidity,HourlyPrecipIn,Conditions,Clouds,dailyrainin,SoftwareType,DateUTC
2013-05-07 00:01:00,56.0,53.0,29.73,WSW,247,5.1,7.7,89,0.00,,,0.00,Rainwise IP-100,2013-05-07 07:01:00,
2013-05-07 00:06:00,55.9,53.0,29.73,WSW,247,2.8,8.6,89,0.00,,,0.00,Rainwise IP-100,2013-05-07 07:06:00,
2013-05-07 00:11:00,55.8,53.0,29.73,WSW,247,2.8,9.3,89,0.00,,,0.00,Rainwise IP-100,2013-05-07 07:11:00,
2013-05-07 00:16:00,55.8,53.0,29.74,SSW,202,5.8,7.5,89,0.00,,,0.00,Rainwise IP-100,2013-05-07 07:16:00,
2013-05-07 00:21:00,55.8,53.0,29.73,SW,225,4.9,7.0,89,0.00,,,0.00,Rainwise IP-100,2013-05-07 07:21:00,
2013-05-07 00:26:00,55.8,53.0,29.73,SW,225,4.0,6.3,89,0.00,,,0.00,Rainwise IP-100,2013-05-07 07:26:00,
2013-05-07 00:31:00,55.8,53.0,29.73,SW,225,5.4,7.2,89,0.00,,,0.00,Rainwise IP-100,2013-05-07 07:31:00,
2013-05-07 00:36:00,55.8,53.0,29.73,SSW,202,2.8,7.5,89,0.00,,,0.00,Rainwise IP-100,2013-05-07 07:36:00,
2013-05-07 00:41:00,55.7,53.0,29.74,SSW,202,2.8,5.1,89,0.00,,,0.00,Rainwise IP-100,2013-05-07 07:41:00,
2013-05-07 00:46:00,55.7,53.0,29.73,SSW,202,2.6,5.1,89,0.00,,,0.00,Rainwise IP-100,2013-05-07 07:46:00,
2013-05-07 00:51:00,55.8,53.0,29.73,SSW,202,4.4,4.7,89,0.00,,,0.00,Rainwise IP-100,2013-05-07 07:51:00,
2013-05-07 00:56:00,55.8,53.0,29.73,SW,225,2.6,4.7,89,0.00,,,0.00,Rainwise IP-100,2013-05-07 07:56:00,
2013-05-07 01:01:00,55.7,53.0,29.73,SSW,202,1.6,4.2,89,0.00,,,0.00,Rainwise IP-100,2013-05-07 08:01:00,
2013-05-07 01:06:00,55.8,53.0,29.73,SW,225,1.4,2.8,89,0.00,,,0.00,Rainwise IP-100,2013-05-07 08:06:00,
2013-05-07 01:11:00,55.8,53.0,29.72,West,270,1.9,2.8,89,0.00,,,0.00,Rainwise IP-100,2013-05-07 08:11:00,
2013-05-07 01:16:00,55.8,53.0,29.73,SW,225,2.1,4.2,89,0.00,,,0.00,Rainwise IP-100,2013-05-07 08:16:00,
2013-05-07 01:21:00,55.7,53.5,29.73,WSW,247,1.6,3.5,90,0.00,,,0.00,Rainwise IP-100,2013-05-07 08:21:00,
2013-05-07 01:26:00,55.7,53.5,29.72,SW,225,2.8,4.0,90,0.00,,,0.00,Rainwise IP-100,2013-05-07 08:26:00,
2013-05-07 01:31:00,55.7,53.0,29.73,WSW,247,1.6,4.9,89,0.00,,,0.00,Rainwise IP-100,2013-05-07 08:31:00,
2013-05-07 01:36:00,55.7,53.0,29.72,WSW,247,2.3,4.2,89,0.00,,,0.00,Rainwise IP-100,2013-05-07 08:36:00,
2013-05-07 01:41:00,55.7,53.0,29.72,WSW,247,3.7,4.9,89,0.00,,,0.00,Rainwise IP-100,2013-05-07 08:41:00,
2013-05-07 01:46:00,55.7,53.0,29.72,SSW,202,3.5,4.7,89,0.00,,,0.00,Rainwise IP-100,2013-05-07 08:46:00,
2013-05-07 01:51:00,55.7,53.0,29.72,SW,225,3.7,4.4,89,0.00,,,0.00,Rainwise IP-100,2013-05-07 08:51:00,
2013-05-07 01:56:00,55.7,53.0,29.72,SW,225,2.1,4.7,89,0.00,,,0.00,Rainwise IP-100,2013-05-07 08:56:00,
2013-05-07 02:01:00,55.6,53.5,29.72,SW,225,3.7,5.8,90,0.00,,,0.00,Rainwise IP-100,2013-05-07 09:01:00,
2013-05-07 02:06:00,55.5,53.5,29.72,West,270,2.1,4.9,90,0.00,,,0.00,Rainwise IP-100,2013-05-07 09:06:00,
2013-05-07 02:11:00,55.5,53.5,29.72,SW,225,4.7,5.6,90,0.00,,,0.00,Rainwise IP-100,2013-05-07 09:11:00,
2013-05-07 02:16:00,55.4,53.0,29.72,WSW,247,2.8,5.8,90,0.00,,,0.00,Rainwise IP-100,2013-05-07 09:16:00,
2013-05-07 02:21:00,55.4,53.0,29.72,WSW,247,3.3,4.4,90,0.00,,,0.00,Rainwise IP-100,2013-05-07 09:21:00,
2013-05-07 02:26:00,55.5,53.5,29.72,SW,225,2.6,4.2,90,0.00,,,0.00,Rainwise IP-100,2013-05-07 09:26:00,
2013-05-07 02:31:00,55.5,53.5,29.72,SW,225,1.9,6.5,90,0.00,,,0.00,Rainwise IP-100,2013-05-07 09:31:00,
2013-05-07 02:36:00,55.5,53.5,29.71,WSW,247,2.6,4.2,90,0.00,,,0.00,Rainwise IP-100,2013-05-07 09:36:00,
2013-05-07 02:41:00,55.5,53.5,29.72,West,270,2.1,3.7,90,0.00,,,0.00,Rainwise IP-100,2013-05-07 09:41:00,
2013-05-07 02:46:00,55.5,53.5,29.72,West,270,3.0,3.7,90,0.00,,,0.00,Rainwise IP-100,2013-05-07 09:46:00,
2013-05-07 02:51:00,55.4,53.0,29.72,SW,225,0.0,3.3,90,0.00,,,0.00,Rainwise IP-100,2013-05-07 09:51:00,
2013-05-07 02:56:00,55.4,53.0,29.72,NNE,22,0.0,2.1,90,0.00,,,0.00,Rainwise IP-100,2013-05-07 09:56:00,
2013-05-07 03:01:00,55.3,53.0,29.73,SSW,202,1.2,2.3,90,0.00,,,0.00,Rainwise IP-100,2013-05-07 10:01:00,
2013-05-07 03:06:00,55.3,53.0,29.72,SSW,202,2.1,2.6,90,0.00,,,0.00,Rainwise IP-100,2013-05-07 10:06:00,
2013-05-07 03:11:00,55.2,53.0,29.72,WSW,247,3.5,3.5,90,0.00,,,0.00,Rainwise IP-100,2013-05-07 10:11:00,
2013-05-07 03:16:00,55.2,53.0,29.73,SSW,202,3.3,4.0,90,0.00,,,0.00,Rainwise IP-100,2013-05-07 10:16:00,
2013-05-07 03:21:00,55.3,53.0,29.72,WSW,247,1.2,3.7,90,0.00,,,0.00,Rainwise IP-100,2013-05-07 10:21:00,
2013-05-07 03:26:00,55.3,53.0,29.72,SSW,202,1.6,2.1,90,0.00,,,0.00,Rainwise IP-100,2013-05-07 10:26:00,
2013-05-07 03:31:00,55.3,53.0,29.72,West,270,0.0,3.5,90,0.00,,,0.00,Rainwise IP-100,2013-05-07 10:31:00,
2013-05-07 03:36:00,55.3,53.0,29.73,SW,225,2.1,3.3,90,0.00,,,0.00,Rainwise IP-100,2013-05-07 10:36:00,
2013-05-07 03:41:00,55.3,53.0,29.72,SW,225,2.8,4.4,90,0.00,,,0.00,Rainwise IP-100,2013-05-07 10:41:00,
2013-05-07 03:46:00,55.4,53.0,29.73,SW,225,3.0,4.9,90,0.00,,,0.00,Rainwise IP-100,2013-05-07 10:46:00,
2013-05-07 03:51:00,55.5,53.0,29.72,West,270,3.3,3.7,89,0.00,,,0.00,Rainwise IP-100,2013-05-07 10:51:00,
2013-05-07 03:56:00,55.5,53.0,29.72,WSW,247,2.3,5.1,89,0.00,,,0.00,Rainwise IP-100,2013-05-07 10:56:00,
2013-05-07 04:01:00,55.5,53.0,29.72,SSW,202,1.4,4.4,89,0.00,,,0.00,Rainwise IP-100,2013-05-07 11:01:00,
2013-05-07 04:06:00,55.5,53.0,29.72,SSW,202,2.1,4.0,89,0.00,,,0.00,Rainwise IP-100,2013-05-07 11:06:00,
2013-05-07 04:11:00,55.4,52.0,29.72,SW,225,3.7,5.1,89,0.00,,,0.00,Rainwise IP-100,2013-05-07 11:11:00,
2013-05-07 04:16:00,55.4,52.0,29.73,SSW,202,3.0,5.1,89,0.00,,,0.00,Rainwise IP-100,2013-05-07 11:16:00,
2013-05-07 04:21:00,55.4,52.0,29.72,WSW,247,3.0,5.1,89,0.00,,,0.00,Rainwise IP-100,2013-05-07 11:21:00,
2013-05-07 04:26:00,55.5,53.0,29.73,SSW,202,2.6,5.1,89,0.00,,,0.00,Rainwise IP-100,2013-05-07 11:26:00,
2013-05-07 04:31:00,55.5,53.0,29.73,WSW,247,1.6,5.8,89,0.00,,,0.00,Rainwise IP-100,2013-05-07 11:31:00,
2013-05-07 04:36:00,55.5,53.0,29.73,WSW,247,4.9,4.9,89,0.00,,,0.00,Rainwise IP-100,2013-05-07 11:36:00,
2013-05-07 04:41:00,55.5,53.0,29.73,West,270,4.2,4.9,89,0.00,,,0.00,Rainwise IP-100,2013-05-07 11:41:00,
2013-05-07 04:46:00,55.5,53.0,29.72,WSW,247,3.7,6.5,89,0.00,,,0.00,Rainwise IP-100,2013-05-07 11:46:00,
2013-05-07 04:51:00,55.4,52.0,29.72,SW,225,3.5,6.1,89,0.00,,,0.00,Rainwise IP-100,2013-05-07 11:51:00,
2013-05-07 04:56:00,55.4,52.0,29.72,SSW,202,6.3,6.3,89,0.00,,,0.00,Rainwise IP-100,2013-05-07 11:56:00,
2013-05-07 05:01:00,55.3,53.0,29.73,WSW,247,5.8,7.9,90,0.00,,,0.00,Rainwise IP-100,2013-05-07 12:01:00,
2013-05-07 05:06:00,55.2,53.0,29.73,WSW,247,6.5,7.2,90,0.00,,,0.00,Rainwise IP-100,2013-05-07 12:06:00,
2013-05-07 05:11:00,55.2,53.0,29.73,WSW,247,5.1,6.8,90,0.00,,,0.00,Rainwise IP-100,2013-05-07 12:11:00,
2013-05-07 05:16:00,55.2,53.0,29.73,SW,225,4.4,6.8,90,0.00,,,0.00,Rainwise IP-100,2013-05-07 12:16:00,
2013-05-07 05:21:00,55.2,53.0,29.73,SW,225,3.7,7.2,91,0.00,,,0.00,Rainwise IP-100,2013-05-07 12:21:00,
2013-05-07 05:26:00,55.3,53.0,29.73,SW,225,3.0,7.5,91,0.00,,,0.00,Rainwise IP-100,2013-05-07 12:26:00,
2013-05-07 05:31:00,55.3,53.0,29.73,SW,225,3.7,7.0,90,0.00,,,0.00,Rainwise IP-100,2013-05-07 12:31:00,
2013-05-07 05:36:00,55.4,53.0,29.74,West,270,4.9,8.2,90,0.00,,,0.00,Rainwise IP-100,2013-05-07 12:36:00,
2013-05-07 05:41:00,55.3,53.0,29.74,SSW,202,5.4,8.2,90,0.00,,,0.00,Rainwise IP-100,2013-05-07 12:41:00,
2013-05-07 05:46:00,55.3,53.0,29.74,SW,225,5.1,8.9,91,0.00,,,0.00,Rainwise IP-100,2013-05-07 12:46:00,
2013-05-07 05:51:00,55.3,53.0,29.74,SSW,202,3.3,8.2,91,0.00,,,0.00,Rainwise IP-100,2013-05-07 12:51:00,
2013-05-07 05:56:00,55.4,53.0,29.74,SSW,202,1.4,7.7,91,0.00,,,0.00,Rainwise IP-100,2013-05-07 12:56:00,
2013-05-07 06:01:00,55.4,53.0,29.74,SW,225,2.3,5.6,91,0.00,,,0.00,Rainwise IP-100,2013-05-07 13:01:00,
2013-05-07 06:06:00,55.4,53.0,29.74,SW,225,1.4,6.3,91,0.00,,,0.00,Rainwise IP-100,2013-05-07 13:06:00,
2013-05-07 06:11:00,55.4,53.0,29.74,WSW,247,3.7,7.7,91,0.00,,,0.00,Rainwise IP-100,2013-05-07 13:11:00,
2013-05-07 06:16:00,55.4,53.0,29.74,WSW,247,4.7,6.8,91,0.00,,,0.00,Rainwise IP-100,2013-05-07 13:16:00,
2013-05-07 06:21:00,55.4,53.0,29.74,WSW,247,3.0,5.8,91,0.00,,,0.00,Rainwise IP-100,2013-05-07 13:21:00,
2013-05-07 06:26:00,55.4,53.0,29.74,SW,225,4.4,5.8,91,0.00,,,0.00,Rainwise IP-100,2013-05-07 13:26:00,
2013-05-07 06:31:00,55.4,53.0,29.74,SW,225,3.3,6.5,91,0.00,,,0.00,Rainwise IP-100,2013-05-07 13:31:00,
2013-05-07 06:36:00,55.4,53.0,29.74,WSW,247,1.9,6.3,91,0.00,,,0.00,Rainwise IP-100,2013-05-07 13:36:00,
2013-05-07 06:41:00,55.4,53.0,29.74,SSW,202,3.3,5.8,91,0.00,,,0.00,Rainwise IP-100,2013-05-07 13:41:00,
2013-05-07 06:46:00,55.4,53.0,29.75,WSW,247,4.0,5.8,91,0.00,,,0.00,Rainwise IP-100,2013-05-07 13:46:00,
2013-05-07 06:51:00,55.5,53.5,29.74,SSW,202,4.0,4.9,91,0.00,,,0.00,Rainwise IP-100,2013-05-07 13:51:00,
2013-05-07 06:56:00,55.5,53.5,29.74,WSW,247,1.9,5.6,91,0.00,,,0.00,Rainwise IP-100,2013-05-07 13:56:00,
2013-05-07 07:01:00,55.5,53.5,29.74,SW,225,4.7,5.1,91,0.00,,,0.00,Rainwise IP-100,2013-05-07 14:01:00,
2013-05-07 07:06:00,55.6,53.5,29.75,WSW,247,4.2,6.5,91,0.00,,,0.00,Rainwise IP-100,2013-05-07 14:06:00,
2013-05-07 07:11:00,55.7,53.5,29.75,SSW,202,1.6,5.6,91,0.00,,,0.00,Rainwise IP-100,2013-05-07 14:11:00,
2013-05-07 07:16:00,55.7,53.5,29.75,WSW,247,4.2,6.3,91,0.00,,,0.00,Rainwise IP-100,2013-05-07 14:16:00,
2013-05-07 07:21:00,55.7,53.5,29.75,WSW,247,4.7,6.3,91,0.00,,,0.00,Rainwise IP-100,2013-05-07 14:21:00,
2013-05-07 07:26:00,55.7,53.5,29.75,SW,225,4.4,7.2,91,0.00,,,0.00,Rainwise IP-100,2013-05-07 14:26:00,
2013-05-07 07:31:00,55.6,53.5,29.76,SSW,202,5.8,9.6,91,0.00,,,0.00,Rainwise IP-100,2013-05-07 14:31:00,
2013-05-07 07:36:00,55.6,53.5,29.76,SW,225,6.5,10.0,91,0.00,,,0.00,Rainwise IP-100,2013-05-07 14:36:00,
2013-05-07 07:41:00,55.6,53.5,29.76,SW,225,4.0,7.9,91,0.00,,,0.00,Rainwise IP-100,2013-05-07 14:41:00,
2013-05-07 07:46:00,55.7,53.5,29.76,WSW,247,2.6,7.5,91,0.00,,,0.00,Rainwise IP-100,2013-05-07 14:46:00,
2013-05-07 07:51:00,55.8,53.5,29.76,WSW,247,3.7,7.7,91,0.00,,,0.00,Rainwise IP-100,2013-05-07 14:51:00,
2013-05-07 07:56:00,55.9,53.5,29.77,SSE,157,3.3,7.0,91,0.00,,,0.00,Rainwise IP-100,2013-05-07 14:56:00,
2013-05-07 08:01:00,56.2,53.5,29.76,WSW,247,1.6,7.9,91,0.00,,,0.00,Rainwise IP-100,2013-05-07 15:01:00,
2013-05-07 08:06:00,56.4,53.5,29.77,West,270,2.8,6.8,90,0.00,,,0.00,Rainwise IP-100,2013-05-07 15:06:00,
2013-05-07 08:11:00,56.5,53.5,29.77,West,270,3.5,6.3,90,0.00,,,0.00,Rainwise IP-100,2013-05-07 15:11:00,
2013-05-07 08:16:00,56.4,53.5,29.77,SW,225,2.6,6.3,90,0.00,,,0.00,Rainwise IP-100,2013-05-07 15:16:00,
2013-05-07 08:21:00,56.5,53.5,29.77,WSW,247,4.9,6.3,89,0.00,,,0.00,Rainwise IP-100,2013-05-07 15:21:00,
2013-05-07 08:26:00,56.7,53.5,29.77,WSW,247,4.4,6.5,89,0.00,,,0.00,Rainwise IP-100,2013-05-07 15:26:00,
2013-05-07 08:31:00,56.9,53.5,29.77,West,270,4.9,8.2,88,0.00,,,0.00,Rainwise IP-100,2013-05-07 15:31:00,
2013-05-07 08:36:00,57.1,53.5,29.77,West,270,4.2,7.5,88,0.00,,,0.00,Rainwise IP-100,2013-05-07 15:36:00,
2013-05-07 08:41:00,57.2,53.5,29.78,SW,225,4.0,7.5,88,0.00,,,0.00,Rainwise IP-100,2013-05-07 15:41:00,
2013-05-07 08:46:00,57.2,53.5,29.78,SW,225,7.2,8.2,87,0.00,,,0.00,Rainwise IP-100,2013-05-07 15:46:00,
2013-05-07 08:51:00,57.2,53.5,29.77,SSW,202,4.2,7.9,87,0.00,,,0.00,Rainwise IP-100,2013-05-07 15:51:00,
2013-05-07 08:56:00,57.3,54.0,29.78,SW,225,4.0,8.2,87,0.00,,,0.00,Rainwise IP-100,2013-05-07 15:56:00,
2013-05-07 09:01:00,57.6,54.0,29.78,WSW,247,4.4,7.5,87,0.00,,,0.00,Rainwise IP-100,2013-05-07 16:01:00,
2013-05-07 09:06:00,57.7,53.5,29.78,WSW,247,7.2,8.9,86,0.00,,,0.00,Rainwise IP-100,2013-05-07 16:06:00,
2013-05-07 09:11:00,58.1,54.0,29.78,SSW,202,4.7,8.6,86,0.00,,,0.00,Rainwise IP-100,2013-05-07 16:11:00,
2013-05-07 09:16:00,58.7,54.5,29.78,SSW,202,7.2,7.5,85,0.00,,,0.00,Rainwise IP-100,2013-05-07 16:16:00,
2013-05-07 09:21:00,59.2,54.0,29.78,West,270,3.3,9.8,84,0.00,,,0.00,Rainwise IP-100,2013-05-07 16:21:00,
2013-05-07 09:26:00,59.7,54.0,29.78,WSW,247,3.3,9.8,82,0.00,,,0.00,Rainwise IP-100,2013-05-07 16:26:00,
2013-05-07 09:31:00,59.9,54.0,29.78,WSW,247,9.8,10.5,81,0.00,,,0.00,Rainwise IP-100,2013-05-07 16:31:00,
2013-05-07 09:36:00,60.2,54.0,29.78,SSW,202,4.4,14.0,80,0.00,,,0.00,Rainwise IP-100,2013-05-07 16:36:00,
2013-05-07 09:41:00,60.7,54.0,29.78,SW,225,8.9,12.1,79,0.00,,,0.00,Rainwise IP-100,2013-05-07 16:41:00,
2013-05-07 09:46:00,60.5,54.0,29.79,SW,225,12.4,12.8,79,0.00,,,0.00,Rainwise IP-100,2013-05-07 16:46:00,
2013-05-07 09:51:00,60.2,53.5,29.78,SW,225,4.7,14.7,79,0.00,,,0.00,Rainwise IP-100,2013-05-07 16:51:00,
2013-05-07 09:56:00,60.5,54.0,29.79,SW,225,9.3,12.6,79,0.00,,,0.00,Rainwise IP-100,2013-05-07 16:56:00,
2013-05-07 10:01:00,60.6,54.0,29.79,SW,225,3.5,14.0,79,0.00,,,0.00,Rainwise IP-100,2013-05-07 17:01:00,
2013-05-07 10:06:00,60.6,54.0,29.79,SSW,202,7.0,13.8,79,0.00,,,0.00,Rainwise IP-100,2013-05-07 17:06:00,
2013-05-07 10:11:00,60.5,54.0,29.78,SW,225,6.5,13.8,79,0.00,,,0.00,Rainwise IP-100,2013-05-07 17:11:00,
2013-05-07 10:16:00,60.2,54.0,29.79,WSW,247,5.6,11.7,80,0.00,,,0.00,Rainwise IP-100,2013-05-07 17:16:00,
2013-05-07 10:21:00,60.3,54.0,29.79,SSW,202,7.5,11.0,80,0.00,,,0.00,Rainwise IP-100,2013-05-07 17:21:00,
2013-05-07 10:26:00,60.7,54.0,29.79,WSW,247,6.1,10.3,79,0.00,,,0.00,Rainwise IP-100,2013-05-07 17:26:00,
2013-05-07 10:31:00,60.8,54.5,29.79,West,270,7.5,11.4,79,0.00,,,0.00,Rainwise IP-100,2013-05-07 17:31:00,
2013-05-07 10:36:00,60.7,54.0,29.79,SW,225,9.1,16.1,79,0.00,,,0.00,Rainwise IP-100,2013-05-07 17:36:00,
2013-05-07 10:41:00,60.6,54.0,29.78,SW,225,13.5,15.2,79,0.00,,,0.00,Rainwise IP-100,2013-05-07 17:41:00,
2013-05-07 10:46:00,60.1,54.0,29.79,SSW,202,8.6,14.5,80,0.00,,,0.00,Rainwise IP-100,2013-05-07 17:46:00,
2013-05-07 10:51:00,60.3,54.0,29.79,SW,225,2.8,11.4,80,0.00,,,0.00,Rainwise IP-100,2013-05-07 17:51:00,
2013-05-07 10:56:00,61.1,54.5,29.79,SSW,202,7.7,13.3,79,0.00,,,0.00,Rainwise IP-100,2013-05-07 17:56:00,
2013-05-07 11:01:00,60.9,54.5,29.79,SSW,202,11.4,16.6,79,0.00,,,0.00,Rainwise IP-100,2013-05-07 18:01:00,
2013-05-07 11:06:00,60.4,54.0,29.79,SSW,202,7.9,14.7,79,0.00,,,0.00,Rainwise IP-100,2013-05-07 18:06:00,
2013-05-07 11:11:00,60.4,54.0,29.79,SSW,202,4.0,15.4,80,0.00,,,0.00,Rainwise IP-100,2013-05-07 18:11:00,
2013-05-07 11:16:00,60.5,54.0,29.79,SW,225,5.4,14.5,80,0.00,,,0.00,Rainwise IP-100,2013-05-07 18:16:00,
2013-05-07 11:21:00,60.3,54.0,29.80,West,270,7.0,15.4,80,0.00,,,0.00,Rainwise IP-100,2013-05-07 18:21:00,
2013-05-07 11:26:00,60.0,54.0,29.80,WSW,247,8.9,16.3,81,0.00,,,0.00,Rainwise IP-100,2013-05-07 18:26:00,
2013-05-07 11:31:00,59.5,54.0,29.80,SSW,202,4.2,13.5,82,0.00,,,0.00,Rainwise IP-100,2013-05-07 18:31:00,
2013-05-07 11:36:00,59.5,54.0,29.80,SSW,202,5.1,11.4,82,0.00,,,0.00,Rainwise IP-100,2013-05-07 18:36:00,
2013-05-07 11:41:00,59.6,54.0,29.80,SW,225,5.1,13.1,83,0.00,,,0.00,Rainwise IP-100,2013-05-07 18:41:00,
2013-05-07 11:46:00,59.8,54.5,29.80,WSW,247,8.4,12.6,82,0.00,,,0.00,Rainwise IP-100,2013-05-07 18:46:00,
2013-05-07 11:51:00,60.2,54.5,29.80,WSW,247,7.7,12.1,82,0.00,,,0.00,Rainwise IP-100,2013-05-07 18:51:00,
2013-05-07 11:56:00,60.1,54.0,29.80,WSW,247,4.7,14.5,81,0.00,,,0.00,Rainwise IP-100,2013-05-07 18:56:00,
2013-05-07 12:01:00,60.1,54.5,29.80,SSW,202,5.8,12.6,82,0.00,,,0.00,Rainwise IP-100,2013-05-07 19:01:00,
2013-05-07 12:06:00,60.2,54.0,29.80,SSW,202,6.1,12.1,81,0.00,,,0.00,Rainwise IP-100,2013-05-07 19:06:00,
2013-05-07 12:11:00,59.7,53.5,29.80,South,180,6.8,12.8,81,0.00,,,0.00,Rainwise IP-100,2013-05-07 19:11:00,
2013-05-07 12:15:00,59.4,54.0,29.80,West,270,8.2,11.4,82,0.00,,,0.00,Rainwise IP-100,2013-05-07 19:15:00,
2013-05-07 12:20:00,59.6,54.0,29.80,SSW,202,9.1,10.5,83,0.00,,,0.00,Rainwise IP-100,2013-05-07 19:20:00,
2013-05-07 12:25:00,59.4,54.0,29.80,SSW,202,5.6,12.1,83,0.00,,,0.00,Rainwise IP-100,2013-05-07 19:25:00,
2013-05-07 12:30:00,59.2,54.0,29.80,SW,225,7.2,10.0,83,0.00,,,0.00,Rainwise IP-100,2013-05-07 19:30:00,
2013-05-07 12:35:00,59.3,54.0,29.80,SSW,202,5.6,12.1,83,0.00,,,0.00,Rainwise IP-100,2013-05-07 19:35:00,
2013-05-07 12:40:00,58.9,54.0,29.80,WSW,247,4.0,13.3,83,0.00,,,0.00,Rainwise IP-100,2013-05-07 19:40:00,
2013-05-07 12:45:00,59.1,54.0,29.79,WSW,247,6.3,10.3,84,0.00,,,0.00,Rainwise IP-100,2013-05-07 19:45:00,
2013-05-07 12:50:00,60.1,54.5,29.80,West,270,7.5,11.2,83,0.00,,,0.00,Rainwise IP-100,2013-05-07 19:50:00,
2013-05-07 12:55:00,60.6,54.5,29.80,SW,225,7.5,12.6,81,0.00,,,0.00,Rainwise IP-100,2013-05-07 19:55:00,
2013-05-07 13:00:00,60.7,54.0,29.79,SW,225,6.1,12.4,80,0.00,,,0.00,Rainwise IP-100,2013-05-07 20:00:00,
2013-05-07 13:05:00,61.0,54.5,29.79,West,270,7.0,14.5,79,0.00,,,0.00,Rainwise IP-100,2013-05-07 20:05:00,
2013-05-07 13:10:00,61.3,54.0,29.79,WSW,247,3.7,11.4,77,0.00,,,0.00,Rainwise IP-100,2013-05-07 20:10:00,
2013-05-07 13:15:00,61.5,54.0,29.80,SSW,202,6.8,10.0,77,0.00,,,0.00,Rainwise IP-100,2013-05-07 20:15:00,
2013-05-07 13:20:00,61.8,54.5,29.79,WSW,247,9.6,10.3,76,0.00,,,0.00,Rainwise IP-100,2013-05-07 20:20:00,
2013-05-07 13:25:00,61.6,54.0,29.79,WSW,247,7.5,14.0,76,0.00,,,0.00,Rainwise IP-100,2013-05-07 20:25:00,
2013-05-07 13:30:00,61.5,54.0,29.79,SW,225,4.0,10.5,76,0.00,,,0.00,Rainwise IP-100,2013-05-07 20:30:00,
2013-05-07 13:35:00,62.1,54.0,29.79,West,270,2.8,12.1,75,0.00,,,0.00,Rainwise IP-100,2013-05-07 20:35:00,
2013-05-07 13:40:00,62.1,54.0,29.79,SSW,202,6.3,11.4,75,0.00,,,0.00,Rainwise IP-100,2013-05-07 20:40:00,
2013-05-07 13:45:00,62.3,54.5,29.79,WSW,247,5.1,11.2,75,0.00,,,0.00,Rainwise IP-100,2013-05-07 20:45:00,
2013-05-07 13:50:00,62.3,54.5,29.78,WSW,247,8.9,14.0,75,0.00,,,0.00,Rainwise IP-100,2013-05-07 20:50:00,
2013-05-07 13:55:00,61.9,54.0,29.79,WSW,247,10.5,13.3,75,0.00,,,0.00,Rainwise IP-100,2013-05-07 20:55:00,
2013-05-07 14:00:00,61.9,54.0,29.78,WSW,247,9.6,12.8,75,0.00,,,0.00,Rainwise IP-100,2013-05-07 21:00:00,
2013-05-07 14:05:00,61.8,54.0,29.79,WSW,247,8.9,14.7,75,0.00,,,0.00,Rainwise IP-100,2013-05-07 21:05:00,
2013-05-07 14:10:00,61.6,54.0,29.79,SSW,202,7.0,12.8,76,0.00,,,0.00,Rainwise IP-100,2013-05-07 21:10:00,
2013-05-07 14:15:00,61.7,54.0,29.79,SW,225,7.7,11.9,76,0.00,,,0.00,Rainwise IP-100,2013-05-07 21:15:00,
2013-05-07 14:20:00,61.8,54.5,29.79,WSW,247,10.5,13.1,76,0.00,,,0.00,Rainwise IP-100,2013-05-07 21:20:00,
2013-05-07 14:25:00,61.7,54.0,29.79,SW,225,5.4,13.8,76,0.00,,,0.00,Rainwise IP-100,2013-05-07 21:25:00,
2013-05-07 14:30:00,61.9,54.5,29.78,WSW,247,7.0,12.1,76,0.00,,,0.00,Rainwise IP-100,2013-05-07 21:30:00,
2013-05-07 14:35:00,61.9,54.5,29.78,WNW,292,8.6,13.3,76,0.00,,,0.00,Rainwise IP-100,2013-05-07 21:35:00,
2013-05-07 14:40:00,61.7,54.0,29.78,SW,225,8.2,13.8,76,0.00,,,0.00,Rainwise IP-100,2013-05-07 21:40:00,
2013-05-07 14:45:00,62.2,54.0,29.77,SSW,202,8.2,12.1,75,0.00,,,0.00,Rainwise IP-100,2013-05-07 21:45:00,
2013-05-07 14:50:00,62.6,54.0,29.78,WSW,247,9.3,12.1,74,0.00,,,0.00,Rainwise IP-100,2013-05-07 21:50:00,
2013-05-07 14:55:00,62.4,54.0,29.77,SW,225,8.9,13.5,73,0.00,,,0.00,Rainwise IP-100,2013-05-07 21:55:00,
2013-05-07 15:00:00,62.1,53.5,29.78,SSW,202,4.9,14.9,73,0.00,,,0.00,Rainwise IP-100,2013-05-07 22:00:00,
2013-05-07 15:05:00,62.1,53.5,29.77,WSW,247,7.0,12.6,74,0.00,,,0.00,Rainwise IP-100,2013-05-07 22:05:00,
2013-05-07 15:10:00,62.3,54.0,29.77,SW,225,5.1,12.6,74,0.00,,,0.00,Rainwise IP-100,2013-05-07 22:10:00,
2013-05-07 15:15:00,62.4,54.0,29.77,WNW,292,9.8,12.8,74,0.00,,,0.00,Rainwise IP-100,2013-05-07 22:15:00,
2013-05-07 15:20:00,62.3,54.0,29.77,WSW,247,11.2,12.1,74,0.00,,,0.00,Rainwise IP-100,2013-05-07 22:20:00,
2013-05-07 15:24:00,62.0,53.5,29.77,WSW,247,10.3,14.5,74,0.00,,,0.00,Rainwise IP-100,2013-05-07 22:24:00,
2013-05-07 15:29:00,61.3,53.5,29.77,West,270,6.5,13.1,75,0.00,,,0.00,Rainwise IP-100,2013-05-07 22:29:00,
2013-05-07 15:30:00,61.2,53.5,29.77,WSW,247,10.0,13.1,76,0.00,,,0.00,Rainwise IP-100,2013-05-07 22:30:00,
2013-05-07 15:35:00,60.9,54.0,29.77,West,270,5.4,12.4,77,0.00,,,0.00,Rainwise IP-100,2013-05-07 22:35:00,
2013-05-07 15:40:00,60.5,53.5,29.77,SW,225,7.5,12.6,78,0.00,,,0.00,Rainwise IP-100,2013-05-07 22:40:00,
2013-05-07 15:45:00,60.6,53.5,29.77,WSW,247,8.9,13.3,78,0.00,,,0.00,Rainwise IP-100,2013-05-07 22:45:00,
2013-05-07 15:50:00,61.1,54.0,29.76,West,270,7.2,12.4,78,0.00,,,0.00,Rainwise IP-100,2013-05-07 22:50:00,
2013-05-07 15:55:00,61.0,54.0,29.77,WSW,247,9.1,11.4,78,0.00,,,0.00,Rainwise IP-100,2013-05-07 22:55:00,
2013-05-07 16:00:00,60.7,54.0,29.77,West,270,5.8,12.8,79,0.00,,,0.00,Rainwise IP-100,2013-05-07 23:00:00,
2013-05-07 16:05:00,60.9,54.5,29.77,WSW,247,6.8,13.1,79,0.00,,,0.00,Rainwise IP-100,2013-05-07 23:05:00,
2013-05-07 16:10:00,60.6,54.0,29.77,SW,225,6.1,13.1,79,0.00,,,0.00,Rainwise IP-100,2013-05-07 23:10:00,
2013-05-07 16:15:00,60.1,54.0,29.77,WSW,247,9.8,11.2,80,0.00,,,0.00,Rainwise IP-100,2013-05-07 23:15:00,
2013-05-07 16:20:00,60.0,54.0,29.77,WSW,247,4.9,11.9,80,0.00,,,0.00,Rainwise IP-100,2013-05-07 23:20:00,
2013-05-07 16:25:00,59.6,53.5,29.77,WSW,247,5.6,11.4,81,0.00,,,0.00,Rainwise IP-100,2013-05-07 23:25:00,
2013-05-07 16:30:00,59.1,53.5,29.77,SSW,202,10.7,12.4,82,0.00,,,0.00,Rainwise IP-100,2013-05-07 23:30:00,
2013-05-07 16:35:00,59.1,54.0,29.77,SW,225,5.6,13.3,83,0.00,,,0.00,Rainwise IP-100,2013-05-07 23:35:00,
2013-05-07 16:40:00,58.9,54.0,29.77,SW,225,1.9,12.4,83,0.00,,,0.00,Rainwise IP-100,2013-05-07 23:40:00,
2013-05-07 16:45:00,58.4,53.5,29.77,SW,225,5.8,12.8,84,0.00,,,0.00,Rainwise IP-100,2013-05-07 23:45:00,
2013-05-07 16:50:00,58.1,54.0,29.77,SW,225,6.5,11.7,85,0.00,,,0.00,Rainwise IP-100,2013-05-07 23:50:00,
2013-05-07 16:55:00,58.4,54.0,29.77,SSW,202,7.7,12.1,85,0.00,,,0.00,Rainwise IP-100,2013-05-07 23:55:00,
2013-05-07 17:00:00,58.3,54.0,29.77,WSW,247,7.9,13.5,85,0.00,,,0.00,Rainwise IP-100,2013-05-08 00:00:00,
2013-05-07 17:05:00,57.7,53.5,29.77,WSW,247,7.2,11.9,85,0.00,,,0.00,Rainwise IP-100,2013-05-08 00:05:00,
2013-05-07 17:10:00,57.5,53.5,29.77,WNW,292,5.4,14.0,86,0.00,,,0.00,Rainwise IP-100,2013-05-08 00:10:00,
2013-05-07 17:15:00,57.1,53.5,29.77,SW,225,11.7,12.6,87,0.00,,,0.00,Rainwise IP-100,2013-05-08 00:15:00,
2013-05-07 17:20:00,56.8,53.5,29.77,SSW,202,9.3,12.4,88,0.00,,,0.00,Rainwise IP-100,2013-05-08 00:20:00,
2013-05-07 17:25:00,56.6,53.0,29.77,WSW,247,6.1,13.1,88,0.00,,,0.00,Rainwise IP-100,2013-05-08 00:25:00,
2013-05-07 17:30:00,56.0,53.0,29.77,WSW,247,9.6,12.1,89,0.00,,,0.00,Rainwise IP-100,2013-05-08 00:30:00,
2013-05-07 17:35:00,55.8,53.5,29.77,West,270,5.6,11.9,90,0.00,,,0.00,Rainwise IP-100,2013-05-08 00:35:00,
2013-05-07 17:40:00,56.1,53.5,29.77,SW,225,9.6,10.7,90,0.00,,,0.00,Rainwise IP-100,2013-05-08 00:40:00,
2013-05-07 17:45:00,56.0,53.5,29.77,SSW,202,11.0,11.7,90,0.00,,,0.00,Rainwise IP-100,2013-05-08 00:45:00,
2013-05-07 17:50:00,55.7,53.5,29.77,West,270,7.9,12.8,90,0.00,,,0.00,Rainwise IP-100,2013-05-08 00:50:00,
2013-05-07 17:55:00,55.5,53.5,29.77,SSW,202,5.4,14.7,91,0.00,,,0.00,Rainwise IP-100,2013-05-08 00:55:00,
2013-05-07 18:00:00,55.3,53.0,29.77,SSW,202,4.9,12.4,91,0.00,,,0.00,Rainwise IP-100,2013-05-08 01:00:00,
2013-05-07 18:05:00,55.3,53.0,29.77,WSW,247,10.3,12.4,92,0.00,,,0.00,Rainwise IP-100,2013-05-08 01:05:00,
2013-05-07 18:10:00,55.2,53.0,29.77,SSW,202,3.7,12.6,92,0.00,,,0.00,Rainwise IP-100,2013-05-08 01:10:00,
2013-05-07 18:15:00,55.1,53.5,29.77,SW,225,8.4,14.7,93,0.00,,,0.00,Rainwise IP-100,2013-05-08 01:15:00,
2013-05-07 18:20:00,54.8,53.5,29.77,SW,225,11.7,12.4,93,0.00,,,0.00,Rainwise IP-100,2013-05-08 01:20:00,
2013-05-07 18:25:00,55.1,53.5,29.77,WSW,247,6.5,13.3,93,0.00,,,0.00,Rainwise IP-100,2013-05-08 01:25:00,
2013-05-07 18:30:00,55.1,53.5,29.77,SW,225,11.0,14.7,93,0.00,,,0.00,Rainwise IP-100,2013-05-08 01:30:00,
2013-05-07 18:35:00,54.8,53.5,29.77,SSW,202,6.3,13.3,93,0.00,,,0.00,Rainwise IP-100,2013-05-08 01:35:00,
2013-05-07 18:40:00,54.6,53.0,29.77,SW,225,6.1,11.9,93,0.00,,,0.00,Rainwise IP-100,2013-05-08 01:40:00,
2013-05-07 18:45:00,54.5,53.0,29.77,SW,225,8.9,12.1,94,0.00,,,0.00,Rainwise IP-100,2013-05-08 01:45:00,
2013-05-07 18:50:00,54.5,53.0,29.77,SW,225,8.4,14.0,94,0.00,,,0.00,Rainwise IP-100,2013-05-08 01:50:00,
2013-05-07 18:55:00,54.4,53.0,29.77,SW,225,5.8,12.8,94,0.00,,,0.00,Rainwise IP-100,2013-05-08 01:55:00,
2013-05-07 19:00:00,54.0,52.0,29.76,West,270,4.9,12.8,94,0.00,,,0.00,Rainwise IP-100,2013-05-08 02:00:00,
2013-05-07 19:05:00,53.8,53.0,29.77,WSW,247,8.6,11.7,95,0.00,,,0.00,Rainwise IP-100,2013-05-08 02:05:00,
2013-05-07 19:10:00,53.7,52.0,29.77,SW,225,8.2,13.1,95,0.00,,,0.00,Rainwise IP-100,2013-05-08 02:10:00,
2013-05-07 19:15:00,53.6,52.0,29.77,West,270,9.3,12.6,95,0.00,,,0.00,Rainwise IP-100,2013-05-08 02:15:00,
2013-05-07 19:20:00,53.5,52.0,29.77,SSW,202,3.5,13.3,96,0.00,,,0.00,Rainwise IP-100,2013-05-08 02:20:00,
2013-05-07 19:25:00,53.3,52.0,29.77,SW,225,8.2,13.5,96,0.00,,,0.00,Rainwise IP-100,2013-05-08 02:25:00,
2013-05-07 19:30:00,53.1,51.0,29.77,WSW,247,8.2,14.0,96,0.00,,,0.00,Rainwise IP-100,2013-05-08 02:30:00,
2013-05-07 19:35:00,53.0,52.0,29.78,SW,225,7.2,13.1,97,0.00,,,0.00,Rainwise IP-100,2013-05-08 02:35:00,
2013-05-07 19:40:00,53.0,52.0,29.78,SSW,202,5.4,11.7,97,0.00,,,0.00,Rainwise IP-100,2013-05-08 02:40:00,
2013-05-07 19:45:00,52.8,52.0,29.78,SW,225,6.3,13.5,97,0.00,,,0.00,Rainwise IP-100,2013-05-08 02:45:00,
2013-05-07 19:50:00,52.7,52.0,29.78,SW,225,6.3,10.5,97,0.00,,,0.00,Rainwise IP-100,2013-05-08 02:50:00,
2013-05-07 19:55:00,52.7,52.0,29.78,SW,225,4.7,13.1,97,0.00,,,0.00,Rainwise IP-100,2013-05-08 02:55:00,
2013-05-07 20:00:00,52.6,52.0,29.78,West,270,7.5,12.4,97,0.00,,,0.00,Rainwise IP-100,2013-05-08 03:00:00,
2013-05-07 20:05:00,52.5,52.0,29.78,WSW,247,6.8,12.4,98,0.00,,,0.00,Rainwise IP-100,2013-05-08 03:05:00,
2013-05-07 20:10:00,52.3,51.0,29.78,SSW,202,10.3,11.4,98,0.00,,,0.00,Rainwise IP-100,2013-05-08 03:10:00,
2013-05-07 20:15:00,52.2,51.0,29.79,SSW,202,3.0,12.4,98,0.00,,,0.00,Rainwise IP-100,2013-05-08 03:15:00,
2013-05-07 20:20:00,52.4,51.0,29.79,WSW,247,7.7,10.7,98,0.00,,,0.00,Rainwise IP-100,2013-05-08 03:20:00,
2013-05-07 20:25:00,52.4,51.0,29.79,SSW,202,8.9,12.8,98,0.00,,,0.00,Rainwise IP-100,2013-05-08 03:25:00,
2013-05-07 20:30:00,52.0,51.0,29.80,SW,225,9.1,11.7,98,0.00,,,0.00,Rainwise IP-100,2013-05-08 03:30:00,
2013-05-07 20:35:00,51.9,51.0,29.79,SW,225,11.0,12.1,98,0.00,,,0.00,Rainwise IP-100,2013-05-08 03:35:00,
2013-05-07 20:40:00,51.9,51.0,29.80,SSW,202,4.7,12.1,98,0.00,,,0.00,Rainwise IP-100,2013-05-08 03:40:00,
2013-05-07 20:45:00,52.0,51.0,29.79,SW,225,5.1,9.1,98,0.00,,,0.00,Rainwise IP-100,2013-05-08 03:45:00,
2013-05-07 20:50:00,52.0,51.0,29.79,WSW,247,7.2,12.6,98,0.00,,,0.00,Rainwise IP-100,2013-05-08 03:50:00,
2013-05-07 20:55:00,52.0,51.0,29.79,SW,225,6.1,12.4,98,0.00,,,0.00,Rainwise IP-100,2013-05-08 03:55:00,
2013-05-07 21:00:00,52.0,51.0,29.79,SW,225,7.9,9.8,98,0.00,,,0.00,Rainwise IP-100,2013-05-08 04:00:00,
2013-05-07 21:01:00,52.0,52.0,29.79,SW,225,5.4,9.8,99,0.00,,,0.00,Rainwise IP-100,2013-05-08 04:01:00,
2013-05-07 21:04:00,52.0,52.0,29.79,SW,225,7.0,11.0,99,0.00,,,0.00,Rainwise IP-100,2013-05-08 04:04:00,
2013-05-07 21:09:00,51.9,52.0,29.79,SW,225,6.8,13.3,99,0.00,,,0.00,Rainwise IP-100,2013-05-08 04:09:00,
2013-05-07 21:12:00,52.0,52.0,29.79,SW,225,4.0,13.3,99,0.00,,,0.00,Rainwise IP-100,2013-05-08 04:12:00,
2013-05-07 21:17:00,52.2,52.0,29.80,SW,225,9.8,9.8,99,0.00,,,0.00,Rainwise IP-100,2013-05-08 04:17:00,
2013-05-07 21:22:00,52.3,52.0,29.80,SW,225,6.1,11.2,99,0.00,,,0.00,Rainwise IP-100,2013-05-08 04:22:00,
2013-05-07 21:27:00,52.3,52.0,29.80,SW,225,5.1,10.0,99,0.00,,,0.00,Rainwise IP-100,2013-05-08 04:27:00,
2013-05-07 21:32:00,52.3,52.0,29.80,SW,225,8.4,11.9,99,0.00,,,0.00,Rainwise IP-100,2013-05-08 04:32:00,
2013-05-07 21:37:00,52.5,53.0,29.80,SW,225,6.3,11.2,99,0.00,,,0.00,Rainwise IP-100,2013-05-08 04:37:00,
2013-05-07 21:42:00,52.6,53.0,29.80,WSW,247,4.7,10.5,99,0.00,,,0.00,Rainwise IP-100,2013-05-08 04:42:00,
2013-05-07 21:47:00,52.7,53.0,29.81,SSW,202,4.4,11.0,99,0.00,,,0.00,Rainwise IP-100,2013-05-08 04:47:00,
2013-05-07 21:52:00,52.6,53.0,29.81,SSW,202,6.5,8.9,99,0.00,,,0.00,Rainwise IP-100,2013-05-08 04:52:00,
2013-05-07 21:57:00,52.5,53.0,29.81,SSW,202,3.3,7.5,99,0.00,,,0.00,Rainwise IP-100,2013-05-08 04:57:00,
2013-05-07 22:02:00,52.5,53.0,29.81,SW,225,5.1,8.4,99,0.00,,,0.00,Rainwise IP-100,2013-05-08 05:02:00,
2013-05-07 22:07:00,52.4,52.0,29.81,SSW,202,6.5,8.4,99,0.00,,,0.00,Rainwise IP-100,2013-05-08 05:07:00,
2013-05-07 22:12:00,52.3,52.0,29.81,WSW,247,5.8,9.3,99,0.00,,,0.00,Rainwise IP-100,2013-05-08 05:12:00,
2013-05-07 22:17:00,52.2,52.0,29.80,SW,225,7.9,8.4,99,0.00,,,0.00,Rainwise IP-100,2013-05-08 05:17:00,
2013-05-07 22:22:00,52.2,52.0,29.80,SW,225,4.7,10.5,99,0.00,,,0.00,Rainwise IP-100,2013-05-08 05:22:00,
2013-05-07 22:27:00,52.2,52.0,29.80,SSW,202,3.0,14.5,99,0.00,,,0.00,Rainwise IP-100,2013-05-08 05:27:00,
2013-05-07 22:32:00,52.1,52.0,29.80,SW,225,6.8,12.1,99,0.00,,,0.00,Rainwise IP-100,2013-05-08 05:32:00,
2013-05-07 22:37:00,52.1,52.0,29.80,SW,225,7.7,12.4,99,0.00,,,0.00,Rainwise IP-100,2013-05-08 05:37:00,
2013-05-07 22:42:00,52.2,52.0,29.80,SW,225,9.1,9.8,99,0.00,,,0.00,Rainwise IP-100,2013-05-08 05:42:00,
2013-05-07 22:47:00,52.3,52.0,29.81,SSW,202,5.4,11.7,99,0.00,,,0.00,Rainwise IP-100,2013-05-08 05:47:00,
2013-05-07 22:52:00,52.3,52.0,29.80,SSW,202,7.9,11.0,99,0.00,,,0.00,Rainwise IP-100,2013-05-08 05:52:00,
2013-05-07 22:57:00,52.4,52.0,29.81,WSW,247,5.4,11.0,99,0.00,,,0.00,Rainwise IP-100,2013-05-08 05:57:00,
2013-05-07 23:00:00,52.4,52.0,29.80,South,180,6.5,11.4,99,0.00,,,0.00,Rainwise IP-100,2013-05-08 06:00:00,
2013-05-07 23:05:00,52.3,52.0,29.80,SSW,202,8.2,11.2,99,0.00,,,0.00,Rainwise IP-100,2013-05-08 06:05:00,
2013-05-07 23:10:00,52.3,52.0,29.80,SSW,202,8.4,14.5,99,0.00,,,0.00,Rainwise IP-100,2013-05-08 06:10:00,
2013-05-07 23:15:00,52.3,52.0,29.81,SSW,202,4.4,11.4,99,0.00,,,0.00,Rainwise IP-100,2013-05-08 06:15:00,
2013-05-07 23:20:00,52.4,52.0,29.81,WSW,247,5.8,11.4,99,0.00,,,0.00,Rainwise IP-100,2013-05-08 06:20:00,
2013-05-07 23:25:00,52.4,52.0,29.81,WSW,247,6.3,10.3,99,0.00,,,0.00,Rainwise IP-100,2013-05-08 06:25:00,
2013-05-07 23:30:00,52.4,52.0,29.81,SSW,202,9.1,10.3,99,0.00,,,0.00,Rainwise IP-100,2013-05-08 06:30:00,
2013-05-07 23:35:00,52.4,52.0,29.80,WSW,247,8.6,9.8,99,0.00,,,0.00,Rainwise IP-100,2013-05-08 06:35:00,
2013-05-07 23:40:00,52.4,52.0,29.80,SW,225,6.5,10.0,99,0.00,,,0.00,Rainwise IP-100,2013-05-08 06:40:00,
2013-05-07 23:45:00,52.4,52.0,29.81,West,270,6.8,10.7,99,0.00,,,0.00,Rainwise IP-100,2013-05-08 06:45:00,
2013-05-07 23:50:00,52.3,52.0,29.81,SSW,202,6.8,11.9,99,0.00,,,0.00,Rainwise IP-100,2013-05-08 06:50:00,
2013-05-07 23:55:00,52.2,52.0,29.81,WSW,247,5.8,12.1,99,0.00,,,0.00,Rainwise IP-100,2013-05-08 06:55:00,